EW4360 Weather Reports


time (UTC)temp
C
wind
direction
speed
KPH
gust
KPH
rain 1hr
cm
rain 24hr
cm
rain mn
cm
humidity
%
barometer
mb
20260506013029 15 284 14.5 22.5 0.00 0.38 0.38 42 1005.9
20260506011531 15 268 12.9 25.7 0.00 0.38 0.38 43 1005.8
20260506010036 16 287 16.1 35.4 0.00 0.38 0.38 40 1005.6
20260506004527 16 297 20.9 32.2 0.00 0.38 0.38 43 1005.4
20260506003026 16 277 17.7 24.1 0.00 0.38 0.38 44 1005.4
20260506001524 16 283 17.7 29.0 0.00 0.38 0.38 47 1005.2
20260506000024 16 283 12.9 24.1 0.00 0.38 0.38 48 1005.1
20260505234524 17 302 17.7 25.7 0.00 0.38 0.38 47 1004.9
20260505233023 17 291 12.9 22.5 0.00 0.38 0.38 50 1004.8
20260505231527 17 264 11.3 30.6 0.00 0.38 0.38 51 1004.7
20260505230023 18 303 9.7 24.1 0.00 0.38 0.38 51 1004.6
20260505224527 17 283 9.7 19.3 0.00 0.38 0.38 50 1004.8
20260505223019 18 226 0.0 14.5 0.00 0.38 0.38 48 1004.9
20260505221516 18 276 0.0 6.4 0.00 0.38 0.38 50 1005.0
20260505220016 18 236 3.2 16.1 0.00 0.38 0.38 53 1005.0
20260505214514 18 271 0.0 8.0 0.00 0.38 0.38 54 1005.4
20260505213017 18 211 0.0 8.0 0.00 0.38 0.38 58 1005.5
20260505211530 17 287 0.0 6.4 0.00 0.38 0.38 55 1005.6
20260505210012 18 259 1.6 17.7 0.00 0.38 0.38 57 1005.7
20260505204510 17 239 11.3 22.5 0.00 0.38 0.38 57 1005.6
20260505203009 17 226 11.3 27.4 0.00 0.38 0.38 56 1005.7
20260505201509 18 241 17.7 33.8 0.00 0.38 0.38 57 1005.4
20260505200006 18 235 20.9 33.8 0.00 0.38 0.38 54 1005.5
20260505194508 19 219 24.1 43.5 0.00 0.38 0.38 54 1005.6
20260505193003 19 203 17.7 40.2 0.00 0.38 0.38 58 1005.9
20260505191502 19 243 12.9 22.5 0.00 0.38 0.38 58 1006.1
20260505190058 18 165 16.1 32.2 0.00 0.38 0.38 60 1006.4
20260505184556 18 197 11.3 27.4 0.00 0.38 0.38 63 1006.6
20260505183052 17 248 8.0 17.7 0.00 0.38 0.38 65 1006.9
20260505181549 17 244 12.9 17.7 0.00 0.38 0.38 68 1007.1
20260505180053 17 252 11.3 19.3 0.00 0.38 0.38 67 1007.2
20260505174544 16 243 8.0 14.5 0.00 0.38 0.38 71 1007.1
20260505173040 15 97 1.6 14.5 0.00 0.38 0.38 74 1007.3
20260505171538 15 91 6.4 12.9 0.00 0.38 0.38 78 1007.5
20260505170038 14 82 0.0 9.7 0.00 0.38 0.38 79 1007.6
20260505164538 15 121 0.0 11.3 0.00 0.38 0.38 80 1007.4
20260505163034 14 145 6.4 11.3 0.00 0.38 0.38 83 1007.5
20260505161531 13 89 3.2 8.0 0.00 0.38 0.38 85 1007.5
20260505153030 12 61 0.0 0.0 0.00 0.38 0.38 88 1007.1
20260505151534 11 100 0.0 8.0 0.00 0.38 0.38 91 1007.3
20260505124518 10 104 0.0 0.0 0.10 0.20 0.20 90 1006.0
20260505123016 10 67 0.0 0.0 0.10 0.18 0.18 89 1006.2
20260505121515 10 82 0.0 0.0 0.08 0.15 0.15 89 1006.2
20260505120117 11 67 0.0 4.8 0.08 0.13 0.13 89 1006.2
20260505114512 11 98 0.0 0.0 0.08 0.10 0.10 88 1006.4
20260505113010 11 67 4.8 6.4 0.05 0.08 0.08 87 1006.4
20260505111519 11 111 3.2 8.0 0.08 0.08 0.08 86 1007.0
20260505101557 12 150 0.0 3.2 0.00 0.00 0.00 75 1007.8
20260505100052 12 333 0.0 11.3 0.00 0.00 0.00 70 1007.9
20260505094558 12 329 8.0 14.5 0.00 0.00 0.00 74 1008.1
20260505093052 12 335 8.0 17.7 0.00 0.00 0.00 73 1008.4
20260505091541 12 314 8.0 16.1 0.00 0.00 0.00 74 1008.7
20260505090040 12 333 6.4 14.5 0.00 0.00 0.00 75 1008.7
20260505084540 12 299 6.4 14.5 0.00 0.00 0.00 75 1008.8
20260505083047 13 280 6.4 17.7 0.00 0.00 0.00 70 1009.0
20260505081535 13 338 12.9 19.3 0.00 0.00 0.00 72 1009.1
20260505080035 13 333 12.9 20.9 0.00 0.00 0.00 71 1008.9
20260505074530 13 9 3.2 17.7 0.00 0.00 0.00 70 1009.0
20260505073026 13 359 0.0 6.4 0.00 0.00 0.00 73 1009.0
20260505071522 13 345 4.8 9.7 0.00 0.00 0.00 73 1009.0
20260505070023 13 336 4.8 14.5 0.00 0.00 0.00 72 1009.1
20260505064517 13 340 12.9 20.9 0.00 0.00 0.00 71 1008.8
20260505063015 14 304 8.0 16.1 0.00 0.00 0.00 69 1009.1
20260505061519 14 312 16.1 25.7 0.00 0.00 0.00 69 1008.9
20260505060014 14 305 12.9 29.0 0.00 0.00 0.00 68 1008.9
20260505054513 13 310 9.7 14.5 0.00 0.00 0.00 67 1009.1
20260505053015 13 333 3.2 8.0 0.00 0.00 0.00 70 1009.0
20260505051514 13 298 9.7 14.5 0.00 0.00 0.00 67 1008.7
20260505041509 13 353 8.0 16.1 0.00 0.00 0.00 69 1008.8
20260505040019 13 48 14.5 24.1 0.00 0.00 0.00 68 1009.0
20260505034508 13 331 22.5 30.6 0.00 0.00 0.00 68 1008.7
20260505033012 13 312 24.1 37.0 0.00 0.00 0.00 66 1008.3
20260505031506 14 314 24.1 38.6 0.00 0.00 0.00 60 1008.3
20260505030013 14 298 33.8 46.7 0.00 0.00 0.00 68 1007.9
20260505024505 13 298 29.0 40.2 0.00 0.00 0.00 69 1007.8
20260505023003 13 302 25.7 40.2 0.00 0.00 0.00 73 1007.9
20260505021503 13 311 27.4 45.1 0.00 0.00 0.00 67 1007.8
20260505020005 14 301 22.5 35.4 0.00 0.00 0.00 62 1007.6
20260505014500 15 334 22.5 54.7 0.00 0.00 0.00 57 1006.9